Regional Weather Roundup
Issued by NWS Green Bay, WI

Home | Current Version | Previous Version | Graphics & Text | Print | Product List | Glossary Off
Versions: 1 2 3 4 5 6 7 8 9 10 11 12 13 14 15 16 17 18 19 20 21 22 23 24 25 26 27 28 29 30 31 32 33 34 35 36 37 38 39 40 41 42 43 44 45 46 47 48 49 50

000
ASUS43 KGRB 242059
RWRGRB

NORTH-CENTRAL AND NORTHEAST WISCONSIN REGIONAL WEATHER ROUNDUP
NATIONAL WEATHER SERVICE GREEN BAY WI
400 PM CDT THU JUL 24 2014

WIZ005-009-010>012-018-019-242200-
NORTH CENTRAL WISCONSIN

CITY           SKY/WX    TMP DP  RH WIND       PRES   REMARKS
IRONWOOD       NOT AVBL
MANITOWISH WTR NOT AVBL
ARBOR VITAE    NOT AVBL
EAGLE RIVER    NOT AVBL
LAND O LAKES   NOT AVBL
RHINELANDER    MOSUNNY   75  49  39 SW3       30.09S
PHILLIPS       NOT AVBL
ANTIGO         NOT AVBL
TOMAHAWK       NOT AVBL
MERRILL        NOT AVBL
$$

WIZ013-073-242200-
NORTHEAST WISCONSIN

CITY           SKY/WX    TMP DP  RH WIND       PRES   REMARKS
IRON MOUNTAIN  MOSUNNY   77  47  34 S8        30.04F
MARINETTE      SUNNY     73  50  43 S8        30.05F
$$

WIZ017-030-035>037-045-242200-
CENTRAL WISCONSIN

CITY           SKY/WX    TMP DP  RH WIND       PRES   REMARKS
MEDFORD        NOT AVBL
WAUSAU         SUNNY     77  49  37 W8        30.06F
MOSINEE        PTSUNNY   75  48  38 SW5       30.09F
MARSHFIELD     MOSUNNY   77  51  40 VRB6      30.08S
WISC RAPIDS    MOSUNNY   79  50  36 W9        30.08F
STEVENS POINT  NOT AVBL
WAUPACA        NOT AVBL
SHAWANO        NOT AVBL
CLINTONVILLE   NOT AVBL
$$

WIZ038-039-048-051-242200-
FOX VALLEY

CITY           SKY/WX    TMP DP  RH WIND       PRES   REMARKS
NWS GREEN BAY  SUNNY     77  51  40 W8        30.07F
APPLETON       PTSUNNY   75  50  41 SE8       30.08F
OSHKOSH        SUNNY     75  54  47 E7        30.07F
FOND DU LAC    PTSUNNY   74  52  46 VRB3      30.08F
$$

WIZ022-050-052-242200-
EAST CENTRAL WISCONSIN

CITY           SKY/WX    TMP DP  RH WIND       PRES   REMARKS
STURGEON BAY   SUNNY     70  46  43 S13G20    30.08F
MANITOWOC      NOT AVBL
SHEBOYGAN      SUNNY     71  45  39 SE9       30.09F
$$

LMZ563-521-522-541>543-242200-
LAKESHORE

STATION/POSITION TIME  TEMP    WIND        PRES    VSBY  WAVE
                       AIR SEA DIR/SP/G                  HT/PER
                 (UTC) (F)     (DEG/KT/KT) (MB)    (MI)  (FT/S)
SHEBOYGAN LKSHOR 2000   62     150/ 10/ 10 1020.2F
KEWAUNEE LKSHORE 2000   58     170/  6/  8 1019.9F
NORTHPORT PIER   2000   66     150/ 10/ 16 1019.0F
N MID LAKE BUOY  2000   59 56  200/ 10/ 10 1019.1F         0
CHAMBERS ISLAND  2000   70     150/  8/ 12 1018.6F
MENOMINEE LKSHOR 2000   69     160/ 11/ 13 1018.7F
$$



USA.gov is the U.S. government's official web portal to all federal, state and local government web resources and services.